Location: Aalen
(48.8330°N, 10.1000°E)
Time: 22:36:56
(UTC+02:00)

Transit 2A - Pass Details

Date: 31 July 2021
Orbit: 594 x 964 km, 66.7° (Epoch: 27 September)

Event Time Altitude Azimuth Distance (km) Brightness Sun altitude
Rises 09:30:57 0° 253° (WSW) 2,868 8.5 34.0°
Reaches altitude 10° 09:33:28 10° 267° (W) 2,000 7.8 34.4°
Maximum altitude 09:37:13 25° 323° (NW) 1,312 7.1 35.0°
Drops below altitude 10° 09:41:14 10° 20° (NNE) 2,156 8.5 35.6°
Sets 09:44:04 0° 33° (NNE) 3,145 9.4 36.1°
